Regional Weather Roundup
Issued by NWS

Home | Current Version | Previous Version | Graphics & Text | Print | Product List | Glossary On
Versions: 1 2 3 4 5 6 7 8 9 10 11 12 13 14 15 16 17 18 19 20 21 22 23 24 25 26 27 28 29 30 31 32 33 34 35 36 37 38 39 40 41 42 43 44 45 46 47 48 49 50
356
ASUS43 KTOP 230708
RWRKS

WEATHER ROUNDUP FOR KANSAS
NATIONAL WEATHER SERVICE GOODLAND KS
200 AM CDT SAT SEP 23 2017

NOTE:  "FAIR" INDICATES FEW OR NO CLOUDS BELOW 12,000 FEET WITH NO
SIGNIFICANT WEATHER AND/OR OBSTRUCTIONS TO VISIBILITY.

KSZ001>006-013>018-027>032-041>047-230800-
NORTHWEST KANSAS

CITY           SKY/WX    TMP DP  RH WIND       PRES   REMARKS
GOODLAND       CLEAR     72  61  68 S17       29.83S
HAYS           PTCLDY    76  65  68 S14       29.87R
HILL CITY      PTCLDY    77  66  68 S16G25    29.84R
RUSSELL        CLEAR     76  65  68 S17       29.86S
$$

KSZ061>065-074>080-084>089-230800-
SOUTHWEST KANSAS

CITY           SKY/WX    TMP DP  RH WIND       PRES   REMARKS
DODGE CITY     PTCLDY    73  64  73 S20       29.89S
ELKHART          N/A     67  64  90 S13         N/A
GARDEN CITY    CLEAR     72  64  76 SE16      29.87S
GREAT BEND     PTCLDY    75  66  73 S21       29.88S
LIBERAL        CLEAR     72  64  76 S17       29.88S
PRATT          PTCLDY    74  64  73 S16       29.92R
$$

KSZ066>073-081>083-090>101-230800-
SOUTHEAST KANSAS

CITY           SKY/WX    TMP DP  RH WIND       PRES   REMARKS
CHANUTE        CLEAR     71  67  87 SE7       29.96S
COFFEYVILLE    CLEAR     70  67  90 SE5       29.95S
HUTCHINSON     CLEAR     76  67  73 S14       29.91R
MEDICINE LODGE   N/A     75  65  70 S8        29.90R
NEWTON         CLEAR     74  67  78 S12       29.93F
PARSONS        CLEAR     74  66  76 SE5       29.97R
WICHITA INTL   PTCLDY    74  68  81 S13       29.92S
WICHITA JABRA  PTCLDY    74  68  81 S12       29.93R
WICHITA MCCONL CLEAR     75  66  73 S12       29.93R
WINFIELD       CLEAR     74  68  81 S9        29.95R
$$

KSZ007>012-019>026-033>040-048>060-102>105-230800-
NORTHEAST KANSAS

CITY           SKY/WX    TMP DP  RH WIND       PRES   REMARKS
CONCORDIA      MOCLDY    74  69  85 S9        29.89S
EMPORIA        CLOUDY    71  65  81 S9        29.94S
LAWRENCE       CLEAR     71  69  93 E7        29.95S
MANHATTAN      PTCLDY    77  68  73 S10       29.91R
MARYSVILLE     PTCLDY    73  68  83 S8        29.90S
OLATHE IND     CLEAR     71  67  87 S5        29.97S
OLATHE EXE     CLEAR     70  68  93 CALM      29.97S
SALINA         PTCLDY    79  67  66 S15       29.90R
TOPEKA BILLARD CLEAR     73  69  87 SE6       29.94R
TOPEKA FORBES  CLEAR     72  69  90 SE6       29.94S
$$




USA.gov is the U.S. government's official web portal to all federal, state and local government web resources and services.